Home > Weather > Quito > Past weeks

Flag for Ecuador Past Weather in Quito, Ecuador — Yesterday and Last 2 Weeks

Now
52 °F

Passing clouds.


Feels Like: 49 °F
Forecast: 49 / 80 °F
Wind: 9 mph from South

Location: Latacunga Airport

Current Time: Jul 24, 2016 at 9:37:25 PM

Latest Report: Jul 24, 2016 at 9:00 PM


Visibility: N/A

Pressure: 30.42 "Hg (21.65 "Hg at 2826m altitude)

Humidity: 100%

Dew Point: 52 °F

Location of QuitoLocation

Past Weather in Quito — Graph

°F

Quito Temperature Yesterday

Maximum temperature yesterday: 66 °F (at 3:00 PM)
Minimum temperature yesterday: 45 °F (at 1:00 AM)
Average temperature yesterday: 54 °F

High & Low Weather Summary for the Past Weeks

 TemperatureHumidityPressure
High66 °F (Jul 10, 3:00 PM)100% (Jul 9, 10:00 PM)30.51 "Hg (Jul 9, 10:00 PM)
Low41 °F (Jul 12, 1:00 AM)43% (Jul 11, 5:00 PM)30.30 "Hg (Jul 23, 4:00 PM)
Average53 °F89%30.43 "Hg
* Reported Jul 9 8:00 PM — Jul 24 8:00 PM, Quito, Weather by CustomWeather, © 2016

Note: Actual official high and low records may vary slightly from our data, if they occured in-between our weather recording intervals... More about our weather records

Advertising

Quito Weather History for the Previous 24 Hours

Scroll right to see more
 ConditionsComfort  
Time TempWeatherWind HumidityBarometerVisibility
8:00 PM
Sun, Jul 24
54 °FPassing clouds.8 mph100%30.39 "HgN/A
7:00 PM55 °FPassing clouds.12 mph88%30.36 "HgN/A
6:00 PM59 °FPassing clouds.16 mph68%30.33 "HgN/A
5:00 PM63 °FScattered clouds.16 mph64%30.33 "HgN/A
4:00 PM64 °FPartly sunny.24 mph52%30.30 "HgN/A
3:00 PM64 °FPartly sunny.16 mph52%30.30 "HgN/A
2:00 PM66 °FScattered clouds.16 mph52%30.36 "HgN/A
1:00 PM64 °FScattered clouds.16 mph56%30.39 "HgN/A
12:00 PM66 °FScattered clouds.13 mph56%30.42 "HgN/A
11:00 AM61 °FScattered clouds.8 mph68%30.45 "HgN/A
10:00 AM54 °FPassing clouds.5 mph88%30.48 "HgN/A
9:00 AM50 °FPartly sunny.2 mph100%30.48 "HgN/A
8:00 AM48 °FMore clouds than sun.5 mph100%30.48 "HgN/A
7:00 AM46 °FMore clouds than sun.2 mph100%30.45 "HgN/A
6:00 AM46 °FOvercast.3 mph100%30.45 "HgN/A
5:00 AM46 °FOvercast.1 mph100%30.45 "HgN/A
4:00 AM46 °FOvercast.3 mph100%30.45 "HgN/A
3:00 AM46 °FPassing clouds.1 mph100%30.48 "HgN/A
2:00 AM46 °FPassing clouds.3 mph100%30.48 "HgN/A
1:00 AM46 °FPassing clouds.3 mph100%30.48 "HgN/A
12:00 AM45 °FPassing clouds.3 mph100%30.48 "HgN/A
11:00 PM
Sat, Jul 23
46 °FPassing clouds.3 mph100%30.48 "HgN/A
10:00 PM46 °FPassing clouds.2 mph100%30.45 "HgN/A
9:00 PM48 °FPassing clouds.5 mph100%30.42 "HgN/A
Weather by CustomWeather, © 2016

See weather overviewHow to use our weather pages